Retour au catalogue

EXPLORER 16

ActifScienceLEO
NORAD 506·PAYLOAD·🇺🇸 United States

Lancé Dec 16, 1962 depuis Wallops Flight Facility

Loading…

Prochains Passages (prochaines 24 heures)

TLE

FraisSource: Space-Track

Époque: Sep 14, 2026, 12:17 UTC

1 00506U 62070A   26257.51189336 -.00000074  00000-0  45208-4 0  9999
2 00506  52.0018  87.3727 0275335 212.2145 146.1697 13.85802409221149

Suivez EXPLORER 16 en temps réel avec AllMySat

Download on the App Store